| time (UTC) | temp F | wind direction | speed knots | gust knots | rain 1hr in | rain 24hr in | rain mn in | humidity % | barometer mb |
| 20260502123802 | 54 | 344 | 0.0 | 2.6 | 0.00 | 1.82 | 0.01 | 2 | 1018.8 |
| 20260502122739 | 53 | 248 | 0.0 | 1.7 | 0.00 | 1.92 | 0.01 | 2 | 1018.6 |
| 20260502121741 | 53 | 271 | 0.0 | 1.7 | 0.00 | 1.95 | 0.01 | 2 | 1018.5 |
| 20260502120758 | 53 | 347 | 0.0 | 0.0 | 0.00 | 2.00 | 0.00 | 2 | 1018.4 |
| 20260502115740 | 53 | 347 | 0.0 | 0.0 | 0.00 | 2.11 | 0.00 | 3 | 1018.3 |
| 20260502114739 | 53 | 347 | 0.0 | 0.0 | 0.00 | 2.14 | 0.00 | 3 | 1018.3 |
| 20260502113713 | 53 | 347 | 0.0 | 0.0 | 0.00 | 2.16 | 0.00 | 3 | 1018.2 |
| 20260502112644 | 53 | 347 | 0.0 | 0.0 | 0.00 | 2.18 | 0.00 | 3 | 1018.1 |
| 20260502111615 | 53 | 347 | 0.0 | 0.0 | 0.00 | 2.22 | 0.00 | 3 | 1017.9 |
| 20260502110617 | 53 | 347 | 0.0 | 0.0 | 0.00 | 2.32 | 0.00 | 3 | 1017.8 |
| 20260502105551 | 53 | 347 | 0.0 | 0.0 | 0.00 | 2.36 | 0.00 | 3 | 1017.7 |
| 20260502104605 | 53 | 347 | 0.0 | 0.0 | 0.00 | 2.38 | 0.00 | 3 | 1017.6 |
| 20260502103543 | 53 | 347 | 0.0 | 0.0 | 0.00 | 2.40 | 0.00 | 3 | 1017.5 |
| 20260502102530 | 53 | 348 | 0.0 | 0.0 | 0.00 | 2.40 | 0.00 | 3 | 1017.5 |
| 20260502101541 | 53 | 333 | 0.0 | 1.7 | 0.00 | 2.42 | 0.00 | 3 | 1017.3 |
| 20260502100517 | 53 | 348 | 0.0 | 0.0 | 0.00 | 2.43 | 0.00 | 3 | 1017.2 |
| 20260502091432 | 54 | 350 | 0.0 | 0.0 | 0.00 | 2.62 | 0.00 | 3 | 1016.3 |
| 20260502090435 | 54 | 350 | 0.0 | 0.0 | 0.00 | 2.62 | 0.00 | 3 | 1016.1 |
| 20260502071106 | 55 | 298 | 0.0 | 0.9 | 0.00 | 2.82 | 0.00 | 1 | 1016.1 |
| 20260502070117 | 55 | 315 | 0.0 | 4.3 | 0.00 | 2.82 | 0.00 | 1 | 1016.2 |
| 20260502065100 | 55 | 347 | 0.0 | 0.0 | 0.00 | 2.82 | 0.00 | 1 | 1015.9 |
| 20260502064113 | 55 | 298 | 0.0 | 3.5 | 0.00 | 2.82 | 0.00 | 1 | 1016.0 |
| 20260502061955 | 55 | 313 | 0.0 | 7.0 | 0.00 | 2.83 | 0.00 | 1 | 1015.8 |
| 20260502060957 | 55 | 343 | 0.0 | 7.0 | 0.00 | 2.84 | 0.00 | 1 | 1015.7 |
| 20260502054916 | 55 | 94 | 0.0 | 3.5 | 0.00 | 2.87 | 0.00 | 1 | 1015.7 |
| 20260502053907 | 55 | 346 | 0.0 | 6.1 | 0.00 | 2.87 | 0.00 | 1 | 1015.8 |
| 20260502051804 | 56 | 83 | 0.0 | 3.5 | 0.00 | 2.88 | 0.00 | 1 | 1015.8 |
| 20260502050742 | 56 | 0 | 0.0 | 7.0 | 0.00 | 2.88 | 0.00 | 1 | 1015.8 |
| 20260502045806 | 56 | 320 | 0.9 | 7.0 | 0.00 | 2.88 | 2.88 | 1 | 1015.7 |
| 20260502044830 | 56 | 327 | 0.0 | 4.3 | 0.00 | 2.88 | 2.88 | 1 | 1015.7 |
| 20260502043808 | 56 | 260 | 0.0 | 4.3 | 0.00 | 2.88 | 2.88 | 1 | 1015.7 |
| 20260502042806 | 56 | 314 | 0.0 | 0.9 | 0.00 | 2.90 | 2.88 | 1 | 1015.6 |
| 20260502041756 | 56 | 346 | 0.9 | 7.8 | 0.00 | 2.91 | 2.88 | 1 | 1015.6 |
| 20260502040736 | 56 | 334 | 0.0 | 6.1 | 0.00 | 2.91 | 2.88 | 1 | 1015.6 |
| 20260502035729 | 56 | 304 | 0.9 | 6.1 | 0.00 | 2.91 | 2.88 | 1 | 1015.7 |
| 20260502034717 | 56 | 329 | 0.0 | 3.5 | 0.00 | 2.91 | 2.88 | 1 | 1015.7 |
| 20260502032558 | 56 | 218 | 0.0 | 1.7 | 0.00 | 2.91 | 2.88 | 1 | 1015.5 |
| 20260502030430 | 56 | 79 | 0.0 | 3.5 | 0.00 | 2.91 | 2.88 | 1 | 1015.1 |
| 20260502025426 | 56 | 355 | 0.9 | 7.0 | 0.00 | 2.91 | 2.88 | 1 | 1014.8 |
| 20260502015805 | 57 | 334 | 0.0 | 6.1 | 0.00 | 2.91 | 2.88 | 1 | 1014.1 |
| 20260502014817 | 57 | 322 | 0.0 | 6.1 | 0.00 | 2.91 | 2.88 | 1 | 1013.8 |
| 20260502013810 | 57 | 55 | 0.0 | 5.2 | 0.00 | 2.91 | 2.88 | 1 | 1013.4 |
| 20260502011648 | 58 | 264 | 0.0 | 6.1 | 0.00 | 2.91 | 2.88 | 1 | 1013.9 |
| 20260502010613 | 58 | 123 | 0.0 | 6.1 | 0.04 | 2.91 | 2.88 | 1 | 1013.7 |
| 20260502005614 | 58 | 77 | 0.9 | 6.1 | 0.09 | 2.91 | 2.88 | 1 | 1012.4 |
| 20260502003442 | 59 | 339 | 0.0 | 4.3 | 0.06 | 2.88 | 2.86 | 1 | 1012.7 |
| 20260502002458 | 60 | 288 | 0.0 | 4.3 | 0.06 | 2.87 | 2.85 | 1 | 1013.0 |
| 20260502001520 | 60 | 219 | 0.0 | 0.0 | 0.06 | 2.87 | 2.84 | 1 | 1012.8 |
| 20260502000454 | 60 | 273 | 0.0 | 3.5 | 0.08 | 2.86 | 2.83 | 1 | 1012.5 |
| 20260501234330 | 60 | 323 | 0.0 | 0.9 | 0.08 | 2.81 | 2.79 | 1 | 1012.4 |
| 20260501233307 | 60 | 320 | 0.0 | 0.9 | 0.13 | 2.80 | 2.78 | 1 | 1012.1 |
| 20260501232305 | 60 | 319 | 0.0 | 1.7 | 0.06 | 2.77 | 2.75 | 1 | 1011.1 |
| 20260501231259 | 60 | 312 | 0.0 | 3.5 | 0.12 | 2.77 | 2.74 | 1 | 1011.1 |
| 20260501225038 | 60 | 311 | 1.7 | 7.0 | 0.00 | 2.66 | 2.63 | 1 | 1010.5 |
| 20260501224055 | 60 | 327 | 0.9 | 7.0 | 0.00 | 2.66 | 2.63 | 1 | 1009.8 |
| 20260501222010 | 61 | 350 | 0.9 | 6.1 | 0.00 | 2.66 | 2.63 | 1 | 1009.8 |
| 20260501221033 | 61 | 317 | 0.0 | 4.3 | 0.06 | 2.66 | 2.63 | 1 | 1010.5 |
| 20260501214850 | 61 | 281 | 0.0 | 6.1 | 0.12 | 2.63 | 2.60 | 1 | 1011.4 |
| 20260501213855 | 61 | 288 | 0.0 | 2.6 | 0.31 | 2.60 | 2.58 | 1 | 1011.3 |
| 20260501212920 | 61 | 349 | 0.0 | 2.6 | 0.21 | 2.56 | 2.53 | 1 | 1011.1 |
| 20260501211927 | 61 | 318 | 0.0 | 7.8 | 0.09 | 2.54 | 2.52 | 1 | 1011.3 |
| 20260501210937 | 61 | 5 | 0.9 | 7.8 | 0.06 | 2.53 | 2.50 | 1 | 1010.3 |
| 20260501205951 | 61 | 342 | 0.0 | 6.1 | 0.05 | 2.51 | 2.48 | 1 | 1009.2 |
| 20260501203836 | 62 | 30 | 0.0 | 7.0 | 0.06 | 2.49 | 2.46 | 1 | 1010.4 |
| 20260501202832 | 62 | 209 | 0.9 | 7.0 | 0.18 | 2.47 | 2.46 | 1 | 1009.8 |
| 20260501201804 | 62 | 313 | 0.0 | 4.3 | 0.10 | 2.46 | 2.44 | 1 | 1009.5 |
| 20260501200825 | 62 | 290 | 0.0 | 4.3 | 0.05 | 2.44 | 2.42 | 1 | 1010.3 |
| 20260501195805 | 62 | 215 | 0.0 | 2.6 | 0.08 | 2.44 | 2.42 | 1 | 1010.6 |
| 20260501194747 | 62 | 323 | 0.0 | 0.9 | 0.04 | 2.42 | 2.40 | 1 | 1010.3 |
| 20260501192601 | 62 | 331 | 0.0 | 0.0 | 0.00 | 2.40 | 2.38 | 1 | 1009.6 |
| 20260501191623 | 62 | 339 | 0.0 | 4.3 | 0.00 | 2.40 | 2.36 | 1 | 1009.9 |
| 20260501190626 | 62 | 333 | 0.0 | 4.3 | 0.00 | 2.39 | 2.36 | 1 | 1009.3 |
| 20260501185600 | 63 | 338 | 0.0 | 3.5 | 0.00 | 2.39 | 2.36 | 1 | 1008.9 |
| 20260501184610 | 63 | 260 | 0.0 | 7.0 | 0.00 | 2.39 | 2.36 | 1 | 1009.6 |
| 20260501182411 | 63 | 126 | 0.9 | 7.0 | 0.04 | 2.39 | 2.36 | 1 | 1008.6 |
| 20260501180221 | 63 | 329 | 0.0 | 6.1 | 0.00 | 2.37 | 2.35 | 1 | 1007.7 |
| 20260501175155 | 63 | 263 | 0.0 | 6.1 | 0.00 | 2.37 | 2.35 | 1 | 1009.4 |
| 20260501174205 | 63 | 340 | 0.0 | 3.5 | 0.04 | 2.37 | 2.34 | 1 | 1009.7 |
| 20260501173139 | 63 | 218 | 0.0 | 2.6 | 0.04 | 2.37 | 2.34 | 1 | 1010.7 |
| 20260501171033 | 62 | 311 | 0.0 | 9.6 | 0.00 | 2.35 | 2.31 | 1 | 1011.1 |
| 20260501170002 | 63 | 19 | 0.0 | 6.1 | 0.00 | 2.35 | 2.31 | 1 | 1010.4 |
| 20260501165009 | 63 | 346 | 0.0 | 6.1 | 0.00 | 2.35 | 2.31 | 1 | 1011.1 |
| 20260501163955 | 63 | 312 | 0.0 | 7.0 | 0.05 | 2.35 | 2.31 | 1 | 1011.5 |
| 20260501155517 | 63 | 194 | 0.0 | 1.7 | 0.19 | 2.23 | 2.21 | 1 | 1013.0 |
| 20260501154542 | 63 | 220 | 0.0 | 0.9 | 0.52 | 2.16 | 2.13 | 1 | 1013.0 |